Weather History for Jackson Hawkins Field, MS

Change the Weather History Date:

Sunday, July 29, 2012

  Actual Average (KJAN) Record (KJAN)
Temperature  
Mean Temperature 88 °F 82 °F  
Max Temperature 98 °F 92 °F 107 °F (1930)
Min Temperature 79 °F 72 °F 61 °F (1994)
Degree Days  
Heating Degree Days 0 0  
Month to date heating degree days 0  
Since 1 June heating degree days 0  
Since 1 July heating degree days 0  
Cooling Degree Days 23 17  
Month to date cooling degree days 486  
Year to date cooling degree days 1266  
Since 1 June cooling degree days 908  
Growing Degree Days 38 (Base 50)    
Moisture  
Dew Point 75 °F    
Average Humidity 70    
Maximum Humidity 94    
Minimum Humidity 40    
Precipitation  
Precipitation 0.00 in 0.16 in 1.76 in (2009)
Month to date precipitation 4.51  
Year to date precipitation 32.74  
Sea Level Pressure  
Sea Level Pressure 29.98 in    
Wind  
Wind Speed 2 mph (West)    
Max Wind Speed 7 mph    
Max Gust Speed -    
Visibility 9 miles    
Events      
T = Trace of Precipitation, MM = Missing Value Source: NWS Daily Summary

Daily Weather History Graph

Daily Weather History Graph

Search for Another Location

Airport:

Trip Planner

Search our weather history database for the weather conditions in past years. The results will help you decide how hot, cold, wet, or windy it might be!

Date:

Astronomy

Jul. 29, 2012 Rise Set
Actual Time 6:13 AM CDT 8:00 PM CDT
Civil Twilight 5:47 AM CDT 8:27 PM CDT
Nautical Twilight 5:14 AM CDT 8:59 PM CDT
Astronomical Twilight 4:40 AM CDT 9:33 PM CDT
Moon 5:03 PM CDT (7/29) 2:31 AM CDT (7/29)
Length of Visible Light 14h 40m
Length of Day
13h 46m
Waxing Gibbous, 85% of the Moon is Illuminated
Jul 29
Waxing Gibbous
Aug 1
Full
Aug 9
Last Quarter
Aug 17
New
Aug 24
First Quarter

Hourly Weather History & Observations

Time (CDT) Temp. Heat Index Dew Point Humidity Pressure Visibility Wind Dir Wind Speed Gust Speed Precip Events Conditions
12:53 AM 81.0 °F 87.3 °F 75.9 °F 85% 30.00 in 9.0 mi Calm Calm - N/A   Clear
1:53 AM 81.0 °F 87.9 °F 77.0 °F 88% 29.99 in 9.0 mi Calm Calm - N/A   Clear
2:53 AM 80.1 °F 85.8 °F 77.0 °F 90% 29.99 in 8.0 mi Calm Calm - N/A   Mostly Cloudy
3:53 AM 80.1 °F 85.8 °F 77.0 °F 90% 29.98 in 7.0 mi West 3.5 mph - N/A   Clear
4:53 AM 79.0 °F - 77.0 °F 94% 29.99 in 6.0 mi Calm Calm - N/A   Clear
5:53 AM 79.0 °F - 75.9 °F 90% 30.00 in 6.0 mi Calm Calm - N/A   Clear
6:53 AM 79.0 °F - 77.0 °F 94% 30.01 in 4.0 mi WSW 3.5 mph - N/A   Clear
7:22 AM 80.6 °F 87.1 °F 77.0 °F 89% 30.05 in 4.0 mi West 3.5 mph - N/A   Partly Cloudy
7:53 AM 81.0 °F 87.9 °F 77.0 °F 88% 30.03 in 7.0 mi WSW 4.6 mph - N/A   Clear
8:53 AM 84.9 °F 94.1 °F 75.9 °F 74% 30.03 in 10.0 mi WSW 5.8 mph - N/A   Clear
9:53 AM 88.0 °F 100.2 °F 77.0 °F 70% 30.03 in 10.0 mi Calm Calm - N/A   Clear
11:53 AM 93.9 °F 108.4 °F 77.0 °F 58% 30.02 in 10.0 mi Variable 3.5 mph - N/A   Partly Cloudy
12:53 PM 93.9 °F 105.4 °F 75.0 °F 54% 30.01 in 10.0 mi NW 6.9 mph - N/A   Scattered Clouds
1:53 PM 96.1 °F 101.0 °F 68.0 °F 40% 29.99 in 10.0 mi WNW 4.6 mph - N/A   Partly Cloudy
2:53 PM 96.1 °F 104.9 °F 72.0 °F 46% 29.97 in 10.0 mi Variable 5.8 mph - N/A   Clear
3:53 PM 97.0 °F 107.7 °F 73.9 °F 47% 29.96 in 10.0 mi Variable 4.6 mph - N/A   Scattered Clouds
4:53 PM 96.1 °F 105.6 °F 73.0 °F 47% 29.94 in 10.0 mi Calm Calm - N/A   Clear
5:53 PM 96.1 °F 105.6 °F 73.0 °F 47% 29.94 in 10.0 mi NNW 3.5 mph - N/A   Clear
6:53 PM 97.0 °F 104.8 °F 71.1 °F 43% 29.94 in 10.0 mi Calm Calm - N/A   Clear
7:53 PM 91.0 °F 99.3 °F 73.0 °F 55% 29.94 in 10.0 mi Calm Calm - N/A   Clear
8:53 PM 87.1 °F 95.4 °F 73.9 °F 65% 29.95 in 10.0 mi Calm Calm - N/A   Clear
9:53 PM 84.0 °F 91.9 °F 75.0 °F 74% 29.96 in 10.0 mi Calm Calm - N/A   Clear
10:53 PM 84.0 °F 91.9 °F 75.0 °F 74% 29.96 in 10.0 mi Calm Calm - N/A   Clear
11:53 PM 82.9 °F 90.8 °F 75.9 °F 79% 29.96 in 10.0 mi Calm Calm - N/A   Clear